Weather in Karmadon

Russia / Republic of North Ossetia — Alania     42°50′26″N   44°30′26″E
temp.,
°C
wind,
m/s
gust,
m/s
humid.,
%
clouds,
%
prec.,
mm/h
press.,
hPa
HPBL,
m
17 august, wed
wed1700:00+11ssw55530 0.0 102049
03:00+10ssw55570 0.0 101951
06:00+10ssw55620 0.0 101967
09:00+17s45450 0.0 1016548
12:00+18s34420 0.0 1015937
15:00+18sse24460 0.0 10161101
18:00+14s44600 0.0 1017259
21:00+11ssw67500 0.0 1019109
18 august, thu
thu1800:00+10ssw66590 0.0 101889
03:00+10ssw66560 0.0 101880
06:00+10ssw5649100 0.0 101772
09:00+16s24400 0.0 1014467
12:00+18sse14390 0.0 1014926
15:00+18se13410 0.0 10131091
18:00+15s22560 0.0 101471
21:00+11ssw55400 0.0 101648
19 august, fri
fri1900:00+10ssw5635100 0.0 101667
03:00+9ssw5651100 0.7 101566
06:00+10ssw445390 0.0 101458
09:00+15s244887 0.1 1012451
12:00+16sse1351100 0.2 1013730
15:00+16sse244774 0.5 1013972
18:00+14s23600 0.1 1014120
21:00+10s6646100 0.1 101781
20 august, sat
sat2000:00+10s7847100 0.0 1017164
03:00+9ssw674087 0.0 1017102
06:00+9ssw7743100 0.0 1018105
09:00+15s463372 0.0 1015502
12:00+17sse353431 0.0 1015978
15:00+16sse243786 0.0 10151047
18:00+12s445186 0.0 1017167
21:00+10ssw674192 0.0 1019126
21 august, sun
sun2100:00+8ssw785420 0.0 1018109
03:00+8ssw77547 0.0 1018106
06:00+8ssw675061 0.0 101798
09:00+15s453699 0.0 1015414
12:00+17s243610 0.0 1014856
15:00+17sse234041 0.0 1014972
18:00+13s33560 0.0 1015166
21:00+9ssw67520 0.0 101791